Weather History for Marianna, FL

Change the Weather History Date:

Saturday, August 3, 2013

  Actual Average Record
Temperature  
Mean Temperature 84 °F 82 °F  
Max Temperature 94 °F 91 °F 100 °F (2010)
Min Temperature 74 °F 73 °F 66 °F (1998)
Degree Days  
Heating Degree Days 0    
Month to date heating degree days 0  
Since 1 June heating degree days 0  
Since 1 July heating degree days 0  
Cooling Degree Days 19    
Month to date cooling degree days 53  
Year to date cooling degree days 1403  
Since 1 June cooling degree days 967  
Growing Degree Days 33 (Base 50)    
Moisture  
Dew Point 76 °F    
Average Humidity 78    
Maximum Humidity 100    
Minimum Humidity 56    
Precipitation  
Precipitation T in 0.21 in 0.37 in (1997)
Month to date precipitation 0.39 0.63  
Year to date precipitation 36.84 33.53  
Sea Level Pressure  
Sea Level Pressure 30.02 in    
Wind  
Wind Speed 3 mph (WSW)    
Max Wind Speed 10 mph    
Max Gust Speed -    
Visibility 10 miles    
Events Rain , Thunderstorm    
T = Trace of Precipitation, MM = Missing Value Source: NWS Daily Summary

Daily Weather History Graph

Daily Weather History Graph

Search for Another Location

Airport:

Trip Planner

Search our weather history database for the weather conditions in past years. The results will help you decide how hot, cold, wet, or windy it might be!

Date:

Astronomy

Aug. 03, 2013 Rise Set
Actual Time 5:59 AM CDT 7:33 PM CDT
Civil Twilight 5:33 AM CDT 7:59 PM CDT
Nautical Twilight 5:02 AM CDT 8:30 PM CDT
Astronomical Twilight 4:29 AM CDT 9:03 PM CDT
Moon 3:11 AM CDT (8/3) 5:13 PM CDT (8/3)
Length of Visible Light 14h 26m
Length of Day
13h 34m
Waning Crescent, 9% of the Moon is Illuminated
Aug 3
Waning Crescent
Aug 6
New
Aug 14
First Quarter
Aug 20
Full
Aug 28
Last Quarter

Hourly Weather History & Observations

Time (CDT) Temp. Heat Index Dew Point Humidity Pressure Visibility Wind Dir Wind Speed Gust Speed Precip Events Conditions
12:53 AM 77.0 °F - 75.0 °F 94% 30.02 in 10.0 mi Calm Calm - N/A   Clear
1:53 AM 77.0 °F - 75.0 °F 94% 29.99 in 9.0 mi Calm Calm - N/A   Clear
2:53 AM 75.9 °F - 73.9 °F 94% 29.99 in 9.0 mi Calm Calm - N/A   Clear
3:53 AM 75.9 °F - 75.0 °F 97% 29.99 in 8.0 mi Calm Calm - N/A   Clear
4:53 AM 75.9 °F - 73.9 °F 94% 29.99 in 9.0 mi Calm Calm - N/A   Clear
5:53 AM 75.0 °F - 73.0 °F 94% 30.01 in 8.0 mi Calm Calm - N/A   Clear
6:53 AM 77.0 °F - 75.0 °F 94% 30.02 in 8.0 mi Calm Calm - N/A   Clear
7:53 AM 80.1 °F 85.8 °F 77.0 °F 90% 30.04 in 8.0 mi Calm Calm - N/A   Clear
8:27 AM 82.4 °F 92.4 °F 78.8 °F 89% 30.04 in 10.0 mi Calm Calm - N/A   Partly Cloudy
8:53 AM 84.0 °F 94.8 °F 78.1 °F 82% 30.05 in 10.0 mi WNW 3.5 mph - N/A   Mostly Cloudy
9:02 AM 82.4 °F 90.9 °F 77.0 °F 84% 30.05 in 10.0 mi West 4.6 mph - N/A   Mostly Cloudy
9:09 AM 84.2 °F 96.1 °F 78.8 °F 84% 30.05 in 10.0 mi NW 5.8 mph - N/A   Mostly Cloudy
9:39 AM 86.0 °F 96.9 °F 77.0 °F 74% 30.05 in 10.0 mi WNW 5.8 mph - N/A   Partly Cloudy
9:53 AM 86.0 °F 96.9 °F 77.0 °F 74% 30.04 in 10.0 mi West 6.9 mph - N/A   Partly Cloudy
10:37 AM 86.0 °F 95.1 °F 75.2 °F 70% 30.06 in 10.0 mi West 5.8 mph - N/A   Mostly Cloudy
10:53 AM 88.0 °F 97.5 °F 75.0 °F 65% 30.05 in 10.0 mi WNW 5.8 mph - N/A   Scattered Clouds
11:53 AM 90.0 °F 101.3 °F 75.9 °F 63% 30.05 in 10.0 mi NW 8.1 mph - N/A   Scattered Clouds
12:53 PM 91.0 °F 100.4 °F 73.9 °F 57% 30.03 in 10.0 mi NNW 6.9 mph - N/A   Scattered Clouds
1:53 PM 91.9 °F 101.3 °F 73.9 °F 55% 30.03 in 10.0 mi WNW 5.8 mph - N/A   Partly Cloudy
2:53 PM 90.0 °F 102.5 °F 77.0 °F 65% 29.99 in 10.0 mi SW 8.1 mph - N/A   Scattered Clouds
3:53 PM 89.1 °F 100.2 °F 75.9 °F 65% 29.98 in 10.0 mi SW 4.6 mph - N/A   Partly Cloudy
4:16 PM 89.6 °F 102.2 °F 77.0 °F 66% 29.99 in 10.0 mi WSW 10.4 mph - N/A Thunderstorm Scattered Clouds
4:31 PM 89.6 °F 102.2 °F 77.0 °F 66% 30.00 in 10.0 mi SW 5.8 mph - N/A   Scattered Clouds
4:53 PM 86.0 °F 96.0 °F 75.9 °F 72% 30.00 in 10.0 mi SSW 10.4 mph - N/A   Mostly Cloudy
5:17 PM 84.2 °F 90.9 °F 73.4 °F 70% 30.00 in 10.0 mi South 9.2 mph - N/A Thunderstorm Mostly Cloudy
5:50 PM 82.4 °F 89.5 °F 75.2 °F 79% 30.01 in 10.0 mi SW 9.2 mph - 0.00 in Rain Light Rain
5:53 PM 81.0 °F 86.7 °F 75.0 °F 82% 30.01 in 10.0 mi WSW 9.2 mph - 0.00 in Rain Light Rain
6:53 PM 81.0 °F 86.7 °F 75.0 °F 82% 30.02 in 10.0 mi NW 3.5 mph - 0.00 in   Mostly Cloudy
7:53 PM 80.1 °F 84.5 °F 73.9 °F 81% 30.03 in 10.0 mi ESE 3.5 mph - N/A   Scattered Clouds
8:53 PM 79.0 °F - 73.9 °F 84% 30.04 in 10.0 mi South 3.5 mph - N/A   Scattered Clouds
9:53 PM 78.1 °F - 75.9 °F 93% 30.06 in 10.0 mi Calm Calm - N/A   Clear
10:53 PM 78.1 °F - 75.9 °F 93% 30.05 in 10.0 mi Calm Calm - N/A   Clear
11:53 PM 77.0 °F - 75.9 °F 96% 30.04 in 10.0 mi SSW 3.5 mph - N/A   Clear